Time,TemperatureF,DewpointF,PressureIn,WindDirection,WindDirectionDegrees,WindSpeedMPH,WindSpeedGustMPH,Humidity,HourlyPrecipIn,Conditions,Clouds,dailyrainin,SoftwareType,DateUTC
2013-11-26 00:00:00,32.1,29.8,30.26,SE,134,0.0,0.0,91,0.00,,,0.00,VWS V14.01,2013-11-26 05:00:00,
2013-11-26 00:01:00,32.1,29.8,30.26,SE,134,0.0,0.0,91,0.00,,,0.00,VWS V14.01,2013-11-26 05:01:00,
2013-11-26 00:06:00,32.1,29.8,30.26,SE,134,0.0,0.0,91,0.00,,,0.00,VWS V14.01,2013-11-26 05:06:00,
2013-11-26 00:10:00,32.1,29.8,30.26,SE,134,0.0,0.0,91,0.00,,,0.00,VWS V14.01,2013-11-26 05:10:00,
2013-11-26 00:11:00,32.1,29.8,30.26,SE,134,0.0,0.0,91,0.00,,,0.00,VWS V14.01,2013-11-26 05:11:00,
2013-11-26 00:16:00,32.1,29.8,30.25,SE,134,0.0,0.0,91,0.00,,,0.00,VWS V14.01,2013-11-26 05:16:00,
2013-11-26 00:20:00,32.1,29.8,30.25,SE,134,0.0,0.0,91,0.00,,,0.00,VWS V14.01,2013-11-26 05:20:00,
2013-11-26 00:21:00,32.1,29.8,30.25,SE,134,0.0,0.0,91,0.00,,,0.00,VWS V14.01,2013-11-26 05:21:00,
2013-11-26 00:26:00,32.1,29.8,30.25,SE,134,0.0,0.0,91,0.00,,,0.00,VWS V14.01,2013-11-26 05:26:00,
2013-11-26 00:30:00,32.1,29.8,30.24,SE,134,0.0,0.0,91,0.00,,,0.00,VWS V14.01,2013-11-26 05:30:00,
2013-11-26 00:31:00,32.1,29.8,30.24,SE,134,0.0,0.0,91,0.00,,,0.00,VWS V14.01,2013-11-26 05:31:00,
2013-11-26 00:36:00,32.1,30.0,30.24,SE,134,0.0,0.0,92,0.00,,,0.00,VWS V14.01,2013-11-26 05:36:00,
2013-11-26 00:40:00,32.1,30.0,30.24,SE,134,0.0,0.0,92,0.00,,,0.00,VWS V14.01,2013-11-26 05:40:00,
2013-11-26 00:41:00,32.1,30.0,30.24,SE,134,0.0,0.0,92,0.00,,,0.00,VWS V14.01,2013-11-26 05:41:00,
2013-11-26 00:46:00,32.2,30.1,30.24,SE,134,0.0,0.0,92,0.00,,,0.00,VWS V14.01,2013-11-26 05:46:00,
2013-11-26 00:50:00,32.2,30.1,30.24,SE,134,0.0,0.0,92,0.00,,,0.00,VWS V14.01,2013-11-26 05:50:00,
2013-11-26 00:51:00,32.2,30.1,30.24,SE,134,0.0,0.0,92,0.00,,,0.00,VWS V14.01,2013-11-26 05:51:00,
2013-11-26 00:56:00,32.2,30.1,30.24,SE,134,0.0,0.0,92,0.00,,,0.00,VWS V14.01,2013-11-26 05:56:00,
2013-11-26 01:00:00,32.2,30.1,30.24,SE,134,0.0,0.0,92,0.00,,,0.00,VWS V14.01,2013-11-26 06:00:00,
2013-11-26 01:01:00,32.2,30.1,30.24,SE,134,0.0,0.0,92,0.00,,,0.00,VWS V14.01,2013-11-26 06:01:00,
2013-11-26 01:06:00,32.2,30.1,30.24,SE,134,0.0,0.0,92,0.00,,,0.00,VWS V14.01,2013-11-26 06:06:00,
2013-11-26 01:10:00,32.2,30.1,30.24,SE,134,0.0,0.0,92,0.00,,,0.00,VWS V14.01,2013-11-26 06:10:00,
2013-11-26 01:11:00,32.2,30.1,30.24,SE,134,0.0,0.0,92,0.00,,,0.00,VWS V14.01,2013-11-26 06:11:00,
2013-11-26 01:16:00,32.2,30.1,30.24,SE,134,0.0,0.0,92,0.00,,,0.00,VWS V14.01,2013-11-26 06:16:00,
2013-11-26 01:20:00,32.2,30.1,30.24,SE,134,0.0,0.0,92,0.00,,,0.00,VWS V14.01,2013-11-26 06:20:00,
2013-11-26 01:21:00,32.2,30.1,30.24,SE,134,0.0,0.0,92,0.00,,,0.00,VWS V14.01,2013-11-26 06:21:00,
2013-11-26 01:26:00,32.2,30.1,30.24,SE,134,0.0,0.0,92,0.00,,,0.00,VWS V14.01,2013-11-26 06:26:00,
2013-11-26 01:30:00,32.1,30.0,30.23,SE,134,0.0,0.0,92,0.00,,,0.00,VWS V14.01,2013-11-26 06:30:00,
2013-11-26 01:31:00,32.1,30.0,30.23,SE,134,0.0,0.0,92,0.00,,,0.00,VWS V14.01,2013-11-26 06:31:00,
2013-11-26 01:36:00,32.1,30.0,30.23,SE,134,0.0,0.0,92,0.00,,,0.00,VWS V14.01,2013-11-26 06:36:00,
2013-11-26 01:40:00,32.1,30.0,30.23,SE,134,0.0,0.0,92,0.00,,,0.00,VWS V14.01,2013-11-26 06:40:00,
2013-11-26 01:41:00,32.1,30.0,30.23,SE,134,0.0,0.0,92,0.00,,,0.00,VWS V14.01,2013-11-26 06:41:00,
2013-11-26 01:46:00,32.2,30.4,30.23,SE,134,0.0,0.0,93,0.00,,,0.00,VWS V14.01,2013-11-26 06:46:00,
2013-11-26 01:50:00,32.2,30.4,30.23,SE,134,0.0,0.0,93,0.00,,,0.00,VWS V14.01,2013-11-26 06:50:00,
2013-11-26 01:52:00,32.2,30.4,30.23,SE,134,0.0,0.0,93,0.00,,,0.00,VWS V14.01,2013-11-26 06:52:00,
2013-11-26 01:56:00,32.2,30.4,30.23,SE,134,0.0,0.0,93,0.00,,,0.00,VWS V14.01,2013-11-26 06:56:00,
2013-11-26 02:00:00,32.2,30.4,30.23,SE,134,0.0,0.0,93,0.00,,,0.00,VWS V14.01,2013-11-26 07:00:00,
2013-11-26 02:01:00,32.2,30.4,30.23,SE,134,0.0,0.0,93,0.00,,,0.00,VWS V14.01,2013-11-26 07:01:00,
2013-11-26 02:07:00,32.2,30.4,30.23,SE,134,0.0,0.0,93,0.00,,,0.00,VWS V14.01,2013-11-26 07:07:00,
2013-11-26 02:10:00,32.2,30.4,30.23,SE,134,0.0,0.0,93,0.00,,,0.00,VWS V14.01,2013-11-26 07:10:00,
2013-11-26 02:12:00,32.2,30.4,30.23,SE,134,0.0,0.0,93,0.00,,,0.00,VWS V14.01,2013-11-26 07:12:00,
2013-11-26 02:17:00,32.2,30.4,30.23,SE,134,0.0,0.0,93,0.00,,,0.00,VWS V14.01,2013-11-26 07:17:00,
2013-11-26 02:20:00,32.2,30.4,30.23,SE,134,0.0,0.0,93,0.00,,,0.00,VWS V14.01,2013-11-26 07:20:00,
2013-11-26 02:22:00,32.2,30.4,30.23,SE,134,0.0,0.0,93,0.00,,,0.00,VWS V14.01,2013-11-26 07:22:00,
2013-11-26 02:27:00,32.2,30.4,30.23,SE,134,0.0,0.0,93,0.00,,,0.00,VWS V14.01,2013-11-26 07:27:00,
2013-11-26 02:30:00,32.2,30.4,30.22,SE,134,0.0,0.0,93,0.00,,,0.00,VWS V14.01,2013-11-26 07:30:00,
2013-11-26 02:32:00,32.2,30.4,30.22,SE,134,0.0,0.0,93,0.00,,,0.00,VWS V14.01,2013-11-26 07:32:00,
2013-11-26 02:37:00,32.2,30.4,30.22,SE,134,0.0,0.0,93,0.00,,,0.00,VWS V14.01,2013-11-26 07:37:00,
2013-11-26 02:40:00,32.2,30.4,30.22,SE,134,0.0,0.0,93,0.00,,,0.00,VWS V14.01,2013-11-26 07:40:00,
2013-11-26 02:42:00,32.2,30.4,30.22,SE,134,0.0,0.0,93,0.00,,,0.00,VWS V14.01,2013-11-26 07:42:00,
2013-11-26 02:47:00,32.2,30.4,30.20,SE,134,0.0,0.0,93,0.00,,,0.00,VWS V14.01,2013-11-26 07:47:00,
2013-11-26 02:50:00,32.2,30.4,30.20,SE,134,0.0,0.0,93,0.00,,,0.00,VWS V14.01,2013-11-26 07:50:00,
2013-11-26 02:52:00,32.2,30.4,30.20,SE,134,0.0,0.0,93,0.00,,,0.00,VWS V14.01,2013-11-26 07:52:00,
2013-11-26 02:57:00,32.2,30.4,30.20,SE,134,0.0,0.0,93,0.00,,,0.00,VWS V14.01,2013-11-26 07:57:00,
2013-11-26 03:00:00,32.2,30.4,30.20,SE,134,0.0,0.0,93,0.00,,,0.00,VWS V14.01,2013-11-26 08:00:00,
2013-11-26 03:07:00,32.4,30.6,30.20,SE,134,0.0,0.0,93,0.00,,,0.00,VWS V14.01,2013-11-26 08:07:00,
2013-11-26 03:10:00,32.4,30.6,30.20,SE,134,0.0,0.0,93,0.00,,,0.00,VWS V14.01,2013-11-26 08:10:00,
2013-11-26 03:17:00,32.4,30.6,30.19,SE,134,0.0,0.0,93,0.00,,,0.00,VWS V14.01,2013-11-26 08:17:00,
2013-11-26 03:20:00,32.4,30.6,30.19,SE,134,0.0,0.0,93,0.00,,,0.00,VWS V14.01,2013-11-26 08:20:00,
2013-11-26 03:22:00,32.4,30.6,30.19,SE,134,0.0,0.0,93,0.00,,,0.00,VWS V14.01,2013-11-26 08:22:00,
2013-11-26 03:27:00,32.4,30.6,30.19,SE,134,0.0,0.0,93,0.00,,,0.00,VWS V14.01,2013-11-26 08:27:00,
2013-11-26 03:30:00,32.4,30.6,30.18,SE,134,0.0,0.0,93,0.00,,,0.00,VWS V14.01,2013-11-26 08:30:00,
2013-11-26 03:37:00,32.4,30.6,30.18,SE,134,0.0,0.0,93,0.00,,,0.00,VWS V14.01,2013-11-26 08:37:00,
2013-11-26 03:40:00,32.4,30.6,30.18,SE,134,0.0,0.0,93,0.00,,,0.00,VWS V14.01,2013-11-26 08:40:00,
2013-11-26 03:42:00,32.4,30.6,30.18,SE,134,0.0,0.0,93,0.00,,,0.00,VWS V14.01,2013-11-26 08:42:00,
2013-11-26 03:45:00,32.2,30.4,30.22,SE,134,0.0,0.0,93,0.00,,,0.00,VWS V14.01,2013-11-26 08:45:00,
2013-11-26 03:47:00,32.4,30.6,30.18,SE,134,0.0,0.0,93,0.00,,,0.00,VWS V14.01,2013-11-26 08:47:00,
2013-11-26 03:50:00,32.4,30.6,30.18,SE,134,0.0,0.0,93,0.00,,,0.00,VWS V14.01,2013-11-26 08:50:00,
2013-11-26 03:52:00,32.4,30.9,30.18,SE,134,0.0,0.0,94,0.00,,,0.00,VWS V14.01,2013-11-26 08:52:00,
2013-11-26 04:00:00,32.4,30.9,30.18,SE,134,0.0,0.0,94,0.00,,,0.00,VWS V14.01,2013-11-26 09:00:00,
2013-11-26 04:06:00,32.2,30.4,30.20,SE,134,0.0,0.0,93,0.00,,,0.00,VWS V14.01,2013-11-26 09:06:00,
2013-11-26 04:07:00,32.4,30.9,30.18,SE,134,0.0,0.0,94,0.00,,,0.00,VWS V14.01,2013-11-26 09:07:00,
2013-11-26 04:10:00,32.5,31.0,30.18,SE,134,0.0,0.0,94,0.00,,,0.00,VWS V14.01,2013-11-26 09:10:00,
2013-11-26 04:12:00,32.5,31.0,30.18,SE,134,0.0,0.0,94,0.00,,,0.00,VWS V14.01,2013-11-26 09:12:00,
2013-11-26 04:17:00,32.5,31.0,30.17,SE,134,0.0,0.0,94,0.00,,,0.00,VWS V14.01,2013-11-26 09:17:00,
2013-11-26 04:18:00,32.4,30.6,30.20,SE,134,0.0,0.0,93,0.00,,,0.00,VWS V14.01,2013-11-26 09:18:00,
2013-11-26 04:20:00,32.5,31.0,30.17,SE,134,0.0,0.0,94,0.00,,,0.00,VWS V14.01,2013-11-26 09:20:00,
2013-11-26 04:22:00,32.5,31.0,30.17,SE,134,0.0,0.0,94,0.00,,,0.00,VWS V14.01,2013-11-26 09:22:00,
2013-11-26 04:30:00,32.5,31.0,30.18,SE,134,0.0,0.0,94,0.00,,,0.00,VWS V14.01,2013-11-26 09:30:00,
2013-11-26 04:32:00,32.7,31.2,30.18,SE,134,0.0,0.0,94,0.00,,,0.00,VWS V14.01,2013-11-26 09:32:00,
2013-11-26 04:36:00,32.4,30.6,30.18,SE,134,0.0,0.0,93,0.00,,,0.00,VWS V14.01,2013-11-26 09:36:00,
2013-11-26 04:40:00,32.7,31.2,30.18,SE,134,0.0,0.0,94,0.00,,,0.00,VWS V14.01,2013-11-26 09:40:00,
2013-11-26 04:46:00,32.4,30.6,30.18,SE,134,0.0,0.0,93,0.00,,,0.00,VWS V14.01,2013-11-26 09:46:00,
2013-11-26 04:47:00,32.7,31.2,30.17,SE,134,0.0,0.0,94,0.00,,,0.00,VWS V14.01,2013-11-26 09:47:00,
2013-11-26 04:50:00,32.7,31.2,30.17,SE,134,0.0,0.0,94,0.00,,,0.00,VWS V14.01,2013-11-26 09:50:00,
2013-11-26 04:52:00,32.7,31.2,30.17,SE,134,0.0,0.0,94,0.00,,,0.00,VWS V14.01,2013-11-26 09:52:00,
2013-11-26 04:57:00,32.8,31.3,30.17,SE,134,0.0,0.0,94,0.00,,,0.00,VWS V14.01,2013-11-26 09:57:00,
2013-11-26 05:00:00,32.8,31.3,30.17,SE,134,0.0,0.0,94,0.00,,,0.00,VWS V14.01,2013-11-26 10:00:00,
2013-11-26 05:02:00,32.8,31.3,30.17,SE,134,0.0,0.0,94,0.00,,,0.00,VWS V14.01,2013-11-26 10:02:00,
2013-11-26 05:03:00,32.4,30.6,30.18,SE,134,0.0,0.0,93,0.00,,,0.00,VWS V14.01,2013-11-26 10:03:00,
2013-11-26 05:07:00,32.8,31.3,30.17,SE,134,0.0,0.0,94,0.00,,,0.00,VWS V14.01,2013-11-26 10:07:00,
2013-11-26 05:08:00,32.4,30.9,30.18,SE,134,0.0,0.0,94,0.00,,,0.00,VWS V14.01,2013-11-26 10:08:00,
2013-11-26 05:10:00,32.8,31.3,30.17,SE,134,0.0,0.0,94,0.00,,,0.00,VWS V14.01,2013-11-26 10:10:00,
2013-11-26 05:12:00,32.8,31.3,30.17,SE,134,0.0,0.0,94,0.00,,,0.00,VWS V14.01,2013-11-26 10:12:00,
2013-11-26 05:16:00,32.5,31.0,30.18,SE,134,0.0,0.0,94,0.00,,,0.00,VWS V14.01,2013-11-26 10:16:00,
2013-11-26 05:17:00,32.8,31.3,30.17,SE,134,0.0,0.0,94,0.00,,,0.00,VWS V14.01,2013-11-26 10:17:00,
2013-11-26 05:20:00,32.8,31.3,30.17,SE,134,0.0,0.0,94,0.00,,,0.00,VWS V14.01,2013-11-26 10:20:00,
2013-11-26 05:22:00,32.8,31.3,30.17,SE,134,0.0,0.0,94,0.00,,,0.00,VWS V14.01,2013-11-26 10:22:00,
2013-11-26 05:30:00,32.9,31.4,30.15,SE,134,0.0,0.0,94,0.00,,,0.00,VWS V14.01,2013-11-26 10:30:00,
2013-11-26 05:32:00,32.9,31.4,30.15,SE,134,0.0,0.0,94,0.00,,,0.00,VWS V14.01,2013-11-26 10:32:00,
2013-11-26 05:33:00,32.5,31.0,30.17,SE,134,0.0,0.0,94,0.00,,,0.00,VWS V14.01,2013-11-26 10:33:00,
2013-11-26 05:37:00,32.8,31.3,30.15,SE,134,0.0,0.0,94,0.00,,,0.00,VWS V14.01,2013-11-26 10:37:00,
2013-11-26 05:40:00,32.8,31.3,30.15,SE,134,0.0,0.0,94,0.00,,,0.00,VWS V14.01,2013-11-26 10:40:00,
2013-11-26 05:43:00,32.7,31.2,30.18,SE,134,0.0,0.0,94,0.00,,,0.00,VWS V14.01,2013-11-26 10:43:00,
2013-11-26 05:48:00,32.7,31.2,30.18,SE,134,0.0,0.0,94,0.00,,,0.00,VWS V14.01,2013-11-26 10:48:00,
2013-11-26 05:50:00,32.9,31.4,30.16,SE,134,0.0,0.0,94,0.00,,,0.00,VWS V14.01,2013-11-26 10:50:00,
2013-11-26 05:52:00,32.9,31.4,30.16,SE,134,0.0,0.0,94,0.00,,,0.00,VWS V14.01,2013-11-26 10:52:00,
2013-11-26 06:00:00,32.9,31.4,30.15,SE,134,0.0,0.0,94,0.00,,,0.00,VWS V14.01,2013-11-26 11:00:00,
2013-11-26 06:07:00,32.9,31.4,30.15,SE,134,0.0,0.0,94,0.00,,,0.00,VWS V14.01,2013-11-26 11:07:00,
2013-11-26 06:10:00,32.9,31.4,30.15,SE,134,0.0,0.0,94,0.00,,,0.00,VWS V14.01,2013-11-26 11:10:00,
2013-11-26 06:16:00,32.8,31.3,30.17,SE,134,0.0,0.0,94,0.00,,,0.00,VWS V14.01,2013-11-26 11:16:00,
2013-11-26 06:17:00,32.9,31.4,30.14,SE,134,0.0,0.0,94,0.00,,,0.00,VWS V14.01,2013-11-26 11:17:00,
2013-11-26 06:20:00,32.9,31.4,30.14,SE,134,0.0,0.0,94,0.00,,,0.00,VWS V14.01,2013-11-26 11:20:00,
2013-11-26 06:27:00,32.9,31.4,30.14,SE,134,0.0,0.0,94,0.00,,,0.00,VWS V14.01,2013-11-26 11:27:00,
2013-11-26 06:30:00,32.9,31.4,30.12,SE,134,0.0,0.0,94,0.00,,,0.00,VWS V14.01,2013-11-26 11:30:00,
2013-11-26 06:33:00,32.8,31.3,30.17,SE,134,0.0,0.0,94,0.00,,,0.00,VWS V14.01,2013-11-26 11:33:00,
2013-11-26 06:40:00,32.9,31.4,30.12,SE,134,0.0,0.0,94,0.00,,,0.00,VWS V14.01,2013-11-26 11:40:00,
2013-11-26 06:48:00,32.8,31.3,30.15,SE,134,0.0,0.0,94,0.00,,,0.00,VWS V14.01,2013-11-26 11:48:00,
2013-11-26 06:50:00,32.9,31.4,30.13,ENE,66,0.0,0.0,94,0.00,,,0.00,VWS V14.01,2013-11-26 11:50:00,
2013-11-26 06:53:00,32.9,31.4,30.16,SE,134,0.0,0.0,94,0.00,,,0.00,VWS V14.01,2013-11-26 11:53:00,
2013-11-26 07:00:00,33.1,31.6,30.13,ENE,66,0.0,0.0,94,0.00,,,0.00,VWS V14.01,2013-11-26 12:00:00,
2013-11-26 07:02:00,33.1,31.6,30.13,ENE,66,0.0,0.0,94,0.00,,,0.00,VWS V14.01,2013-11-26 12:02:00,
2013-11-26 07:03:00,32.9,31.4,30.16,SE,134,0.0,0.0,94,0.00,,,0.00,VWS V14.01,2013-11-26 12:03:00,
2013-11-26 07:07:00,33.1,31.6,30.13,ENE,66,0.0,0.0,94,0.00,,,0.00,VWS V14.01,2013-11-26 12:07:00,
2013-11-26 07:08:00,32.9,31.4,30.15,SE,134,0.0,0.0,94,0.00,,,0.00,VWS V14.01,2013-11-26 12:08:00,
2013-11-26 07:10:00,33.1,31.6,30.13,ENE,66,0.0,0.0,94,0.00,,,0.00,VWS V14.01,2013-11-26 12:10:00,
2013-11-26 07:12:00,33.2,31.7,30.13,ENE,66,0.0,0.0,94,0.00,,,0.00,VWS V14.01,2013-11-26 12:12:00,
2013-11-26 07:16:00,32.9,31.4,30.15,SE,134,0.0,0.0,94,0.00,,,0.00,VWS V14.01,2013-11-26 12:16:00,
2013-11-26 07:20:00,33.2,31.7,30.12,ENE,66,0.0,0.0,94,0.01,,,0.01,VWS V14.01,2013-11-26 12:20:00,
2013-11-26 07:22:00,33.2,31.7,30.12,ENE,78,0.0,0.0,94,0.01,,,0.01,VWS V14.01,2013-11-26 12:22:00,
2013-11-26 07:28:00,32.9,31.4,30.14,SE,134,0.0,0.0,94,0.00,,,0.00,VWS V14.01,2013-11-26 12:28:00,
2013-11-26 07:30:00,33.2,31.7,30.09,ENE,76,0.0,0.0,94,0.01,,,0.01,VWS V14.01,2013-11-26 12:30:00,
2013-11-26 07:33:00,33.2,31.7,30.09,ENE,76,0.0,0.0,94,0.01,,,0.01,VWS V14.01,2013-11-26 12:33:00,
2013-11-26 07:38:00,32.9,31.4,30.12,SE,134,0.0,0.0,94,0.00,,,0.00,VWS V14.01,2013-11-26 12:38:00,
2013-11-26 07:40:00,33.2,31.7,30.09,ENE,76,0.0,0.0,94,0.02,,,0.02,VWS V14.01,2013-11-26 12:40:00,
2013-11-26 07:43:00,32.9,31.4,30.12,SE,134,0.0,0.0,94,0.00,,,0.00,VWS V14.01,2013-11-26 12:43:00,
2013-11-26 07:48:00,32.9,31.4,30.12,SE,134,0.0,0.0,94,0.00,,,0.00,VWS V14.01,2013-11-26 12:48:00,
2013-11-26 07:50:00,33.4,31.9,30.10,ENE,76,0.0,0.0,94,0.02,,,0.02,VWS V14.01,2013-11-26 12:50:00,
2013-11-26 07:53:00,32.9,31.4,30.13,ENE,66,0.0,0.0,94,0.00,,,0.00,VWS V14.01,2013-11-26 12:53:00,
2013-11-26 07:58:00,32.9,31.4,30.13,ENE,66,0.0,0.0,94,0.00,,,0.00,VWS V14.01,2013-11-26 12:58:00,
2013-11-26 08:00:00,33.4,31.9,30.12,ENE,76,0.0,0.0,94,0.02,,,0.02,VWS V14.01,2013-11-26 13:00:00,
2013-11-26 08:03:00,32.9,31.4,30.13,ENE,66,0.0,0.0,94,0.00,,,0.00,VWS V14.01,2013-11-26 13:03:00,
2013-11-26 08:10:00,33.7,32.2,30.12,ENE,76,0.0,0.0,94,0.02,,,0.02,VWS V14.01,2013-11-26 13:10:00,
2013-11-26 08:13:00,33.7,32.2,30.12,ENE,76,0.0,0.0,94,0.02,,,0.02,VWS V14.01,2013-11-26 13:13:00,
2013-11-26 08:16:00,33.1,31.6,30.13,ENE,66,0.0,0.0,94,0.00,,,0.00,VWS V14.01,2013-11-26 13:16:00,
2013-11-26 08:20:00,33.7,32.2,30.10,ENE,76,0.0,0.0,94,0.02,,,0.02,VWS V14.01,2013-11-26 13:20:00,
2013-11-26 08:23:00,33.2,31.7,30.12,ENE,66,0.0,0.0,94,0.01,,,0.01,VWS V14.01,2013-11-26 13:23:00,
2013-11-26 08:30:00,33.8,32.3,30.12,ENE,76,0.0,0.0,94,0.01,,,0.02,VWS V14.01,2013-11-26 13:30:00,
2013-11-26 08:33:00,33.2,31.7,30.12,ENE,78,0.0,0.0,94,0.01,,,0.01,VWS V14.01,2013-11-26 13:33:00,
2013-11-26 08:38:00,34.0,32.5,30.12,ENE,76,0.0,0.0,94,0.02,,,0.03,VWS V14.01,2013-11-26 13:38:00,
2013-11-26 08:40:00,34.0,32.5,30.12,ENE,76,0.0,0.0,94,0.02,,,0.03,VWS V14.01,2013-11-26 13:40:00,
2013-11-26 08:43:00,33.2,31.7,30.09,ENE,76,0.0,0.0,94,0.02,,,0.02,VWS V14.01,2013-11-26 13:43:00,
2013-11-26 08:48:00,33.2,31.7,30.09,ENE,76,0.0,0.0,94,0.02,,,0.02,VWS V14.01,2013-11-26 13:48:00,
2013-11-26 08:50:00,34.1,32.6,30.12,ENE,76,0.0,0.0,94,0.01,,,0.03,VWS V14.01,2013-11-26 13:50:00,
2013-11-26 08:53:00,34.1,32.6,30.12,ENE,76,0.0,0.0,94,0.01,,,0.03,VWS V14.01,2013-11-26 13:53:00,
2013-11-26 08:56:00,33.4,31.9,30.10,ENE,76,0.0,0.0,94,0.02,,,0.02,VWS V14.01,2013-11-26 13:56:00,
2013-11-26 09:00:00,34.1,32.6,30.12,ENE,76,0.0,0.0,94,0.02,,,0.04,VWS V14.01,2013-11-26 14:00:00,
2013-11-26 09:04:00,33.4,31.9,30.10,ENE,76,0.0,0.0,94,0.02,,,0.02,VWS V14.01,2013-11-26 14:04:00,
2013-11-26 09:09:00,33.5,32.0,30.12,ENE,76,0.0,0.0,94,0.02,,,0.02,VWS V14.01,2013-11-26 14:09:00,
2013-11-26 09:10:00,34.4,32.9,30.12,ENE,76,0.0,0.0,94,0.02,,,0.04,VWS V14.01,2013-11-26 14:10:00,
2013-11-26 09:14:00,33.5,32.0,30.12,ENE,76,0.0,0.0,94,0.02,,,0.02,VWS V14.01,2013-11-26 14:14:00,
2013-11-26 09:20:00,34.4,32.9,30.11,ENE,74,0.0,0.0,94,0.02,,,0.04,VWS V14.01,2013-11-26 14:20:00,
2013-11-26 09:24:00,33.7,32.2,30.10,ENE,76,0.0,0.0,94,0.02,,,0.02,VWS V14.01,2013-11-26 14:24:00,
2013-11-26 09:29:00,33.7,32.2,30.10,ENE,76,0.0,0.0,94,0.01,,,0.02,VWS V14.01,2013-11-26 14:29:00,
2013-11-26 09:30:00,34.4,32.9,30.10,NNW,330,0.0,0.0,94,0.03,,,0.05,VWS V14.01,2013-11-26 14:30:00,
2013-11-26 09:34:00,33.7,32.2,30.10,ENE,76,0.0,0.0,94,0.01,,,0.02,VWS V14.01,2013-11-26 14:34:00,
2013-11-26 09:39:00,33.8,32.3,30.12,ENE,76,0.0,0.0,94,0.01,,,0.02,VWS V14.01,2013-11-26 14:39:00,
2013-11-26 09:40:00,34.3,32.8,30.10,NNW,329,0.0,0.0,94,0.03,,,0.05,VWS V14.01,2013-11-26 14:40:00,
2013-11-26 09:46:00,34.0,32.5,30.12,ENE,76,0.0,0.0,94,0.02,,,0.03,VWS V14.01,2013-11-26 14:46:00,
2013-11-26 09:50:00,34.3,32.8,30.08,North,355,0.0,0.0,94,0.03,,,0.06,VWS V14.01,2013-11-26 14:50:00,
2013-11-26 09:54:00,34.1,32.6,30.12,ENE,76,0.0,0.0,94,0.01,,,0.03,VWS V14.01,2013-11-26 14:54:00,
2013-11-26 10:00:00,34.3,32.8,30.09,NNE,13,0.0,0.0,94,0.03,,,0.06,VWS V14.01,2013-11-26 15:00:00,
2013-11-26 10:04:00,34.1,32.6,30.12,ENE,76,0.0,0.0,94,0.01,,,0.03,VWS V14.01,2013-11-26 15:04:00,
2013-11-26 10:09:00,34.3,32.8,30.12,ENE,76,0.0,0.0,94,0.02,,,0.04,VWS V14.01,2013-11-26 15:09:00,
2013-11-26 10:10:00,34.1,32.6,30.09,North,360,0.0,0.0,94,0.02,,,0.06,VWS V14.01,2013-11-26 15:10:00,
2013-11-26 10:14:00,34.4,32.9,30.12,ENE,76,0.0,0.0,94,0.02,,,0.04,VWS V14.01,2013-11-26 15:14:00,
2013-11-26 10:19:00,34.4,32.9,30.12,ENE,76,0.0,0.0,94,0.02,,,0.04,VWS V14.01,2013-11-26 15:19:00,
2013-11-26 10:20:00,34.3,32.8,30.09,NNW,334,0.0,0.0,94,0.02,,,0.06,VWS V14.01,2013-11-26 15:20:00,
2013-11-26 10:24:00,34.4,32.9,30.11,ENE,76,0.0,0.0,94,0.02,,,0.04,VWS V14.01,2013-11-26 15:24:00,
2013-11-26 10:29:00,34.3,32.8,30.11,NNW,345,0.0,0.0,94,0.03,,,0.05,VWS V14.01,2013-11-26 15:29:00,
2013-11-26 10:30:00,34.4,32.9,30.10,NNW,329,0.0,0.0,94,0.02,,,0.06,VWS V14.01,2013-11-26 15:30:00,
2013-11-26 10:34:00,34.4,32.9,30.11,NNW,338,0.0,0.0,94,0.03,,,0.05,VWS V14.01,2013-11-26 15:34:00,
2013-11-26 10:39:00,34.3,32.5,30.10,NNW,327,0.0,0.0,93,0.03,,,0.05,VWS V14.01,2013-11-26 15:39:00,
2013-11-26 10:40:00,34.3,32.8,30.10,NNW,328,0.0,0.0,94,0.01,,,0.06,VWS V14.01,2013-11-26 15:40:00,
2013-11-26 10:44:00,34.4,32.9,30.10,NNW,327,0.0,0.0,94,0.03,,,0.05,VWS V14.01,2013-11-26 15:44:00,
2013-11-26 10:49:00,34.3,32.5,30.10,NNW,338,0.0,0.0,93,0.02,,,0.05,VWS V14.01,2013-11-26 15:49:00,
2013-11-26 10:50:00,34.4,32.6,30.07,NNW,329,0.0,0.0,93,0.01,,,0.06,VWS V14.01,2013-11-26 15:50:00,
2013-11-26 10:54:00,34.3,32.8,30.08,North,351,0.0,0.0,94,0.03,,,0.06,VWS V14.01,2013-11-26 15:54:00,
2013-11-26 10:59:00,34.4,32.9,30.08,North,355,0.0,0.0,94,0.03,,,0.06,VWS V14.01,2013-11-26 15:59:00,
2013-11-26 11:00:00,34.4,32.6,30.04,NNW,329,0.0,0.0,93,0.00,,,0.06,VWS V14.01,2013-11-26 16:00:00,
2013-11-26 11:04:00,34.3,32.8,30.08,NNW,333,0.0,0.0,94,0.03,,,0.06,VWS V14.01,2013-11-26 16:04:00,
2013-11-26 11:09:00,34.3,32.8,30.09,NNW,327,0.0,0.0,94,0.02,,,0.06,VWS V14.01,2013-11-26 16:09:00,
2013-11-26 11:10:00,34.3,32.5,30.04,NNW,337,0.0,0.0,93,0.00,,,0.06,VWS V14.01,2013-11-26 16:10:00,
2013-11-26 11:14:00,34.1,32.6,30.09,NNW,345,0.0,0.0,94,0.02,,,0.06,VWS V14.01,2013-11-26 16:14:00,
2013-11-26 11:19:00,34.3,32.8,30.09,North,360,0.0,0.0,94,0.02,,,0.06,VWS V14.01,2013-11-26 16:19:00,
2013-11-26 11:20:00,34.1,32.3,30.02,NW,323,0.0,0.0,93,0.01,,,0.07,VWS V14.01,2013-11-26 16:20:00,
2013-11-26 11:24:00,34.3,32.8,30.09,NW,318,0.0,0.0,94,0.02,,,0.06,VWS V14.01,2013-11-26 16:24:00,
2013-11-26 11:29:00,34.3,32.8,30.09,NNW,329,0.0,0.0,94,0.02,,,0.06,VWS V14.01,2013-11-26 16:29:00,
2013-11-26 11:30:00,34.3,32.5,30.01,NNW,331,0.0,0.0,93,0.01,,,0.07,VWS V14.01,2013-11-26 16:30:00,
2013-11-26 11:34:00,34.3,32.8,30.09,NNW,329,0.0,0.0,94,0.02,,,0.06,VWS V14.01,2013-11-26 16:34:00,
2013-11-26 11:39:00,34.3,32.8,30.10,NNW,329,0.0,0.0,94,0.01,,,0.06,VWS V14.01,2013-11-26 16:39:00,
2013-11-26 11:40:00,34.4,32.6,30.01,North,11,0.0,0.0,93,0.01,,,0.07,VWS V14.01,2013-11-26 16:40:00,
2013-11-26 11:44:00,34.4,32.9,30.10,NNW,329,0.0,0.0,94,0.01,,,0.06,VWS V14.01,2013-11-26 16:44:00,
2013-11-26 11:49:00,34.4,32.9,30.10,NNW,328,0.0,0.0,94,0.01,,,0.06,VWS V14.01,2013-11-26 16:49:00,
2013-11-26 11:50:00,34.4,32.6,30.00,NNW,339,0.0,0.0,93,0.01,,,0.07,VWS V14.01,2013-11-26 16:50:00,
2013-11-26 11:54:00,34.4,32.6,30.07,NNW,329,0.0,0.0,93,0.01,,,0.06,VWS V14.01,2013-11-26 16:54:00,
2013-11-26 11:59:00,34.4,32.6,30.07,NNW,329,0.0,0.0,93,0.00,,,0.06,VWS V14.01,2013-11-26 16:59:00,
2013-11-26 12:00:00,34.4,32.6,30.00,North,360,0.0,0.0,93,0.01,,,0.07,VWS V14.01,2013-11-26 17:00:00,
2013-11-26 12:04:00,34.4,32.6,30.07,NNW,329,0.0,0.0,93,0.00,,,0.06,VWS V14.01,2013-11-26 17:04:00,
2013-11-26 12:09:00,34.4,32.6,30.04,NNW,340,0.0,0.0,93,0.00,,,0.06,VWS V14.01,2013-11-26 17:09:00,
2013-11-26 12:10:00,34.4,32.6,30.00,NW,324,0.0,0.0,93,0.01,,,0.07,VWS V14.01,2013-11-26 17:10:00,
2013-11-26 12:14:00,34.4,32.6,30.04,North,5,0.0,0.0,93,0.00,,,0.06,VWS V14.01,2013-11-26 17:14:00,
2013-11-26 12:19:00,34.3,32.5,30.04,NNW,344,0.0,0.0,93,0.00,,,0.06,VWS V14.01,2013-11-26 17:19:00,
2013-11-26 12:20:00,34.4,32.6,30.01,NNW,345,0.0,0.0,93,0.01,,,0.07,VWS V14.01,2013-11-26 17:20:00,
2013-11-26 12:24:00,34.1,32.3,30.02,North,349,0.0,0.0,93,0.01,,,0.07,VWS V14.01,2013-11-26 17:24:00,
2013-11-26 12:29:00,34.3,32.5,30.02,NNE,18,0.0,0.0,93,0.01,,,0.07,VWS V14.01,2013-11-26 17:29:00,
2013-11-26 12:30:00,34.4,32.6,29.99,North,360,0.0,0.0,93,0.01,,,0.08,VWS V14.01,2013-11-26 17:30:00,
2013-11-26 12:34:00,34.3,32.5,30.02,NNW,333,0.0,0.0,93,0.01,,,0.07,VWS V14.01,2013-11-26 17:34:00,
2013-11-26 12:39:00,34.3,32.5,30.01,NW,307,0.0,0.0,93,0.01,,,0.07,VWS V14.01,2013-11-26 17:39:00,
2013-11-26 12:40:00,34.4,32.6,29.99,NE,48,0.0,0.0,93,0.01,,,0.08,VWS V14.01,2013-11-26 17:40:00,
2013-11-26 12:44:00,34.4,32.6,30.01,NW,320,0.0,0.0,93,0.01,,,0.07,VWS V14.01,2013-11-26 17:44:00,
2013-11-26 12:49:00,34.4,32.6,30.01,North,355,0.0,0.0,93,0.01,,,0.07,VWS V14.01,2013-11-26 17:49:00,
2013-11-26 12:50:00,34.4,32.6,29.98,NNW,342,0.0,0.0,93,0.02,,,0.09,VWS V14.01,2013-11-26 17:50:00,
2013-11-26 12:54:00,34.6,32.8,30.00,North,360,0.0,0.0,93,0.01,,,0.07,VWS V14.01,2013-11-26 17:54:00,
2013-11-26 12:59:00,34.3,32.5,30.00,North,5,0.0,0.0,93,0.01,,,0.07,VWS V14.01,2013-11-26 17:59:00,
2013-11-26 13:00:00,34.4,32.6,29.98,North,355,0.0,0.0,93,0.02,,,0.09,VWS V14.01,2013-11-26 18:00:00,
2013-11-26 13:04:00,34.4,32.6,30.00,NNW,344,0.0,0.0,93,0.01,,,0.07,VWS V14.01,2013-11-26 18:04:00,
2013-11-26 13:09:00,34.4,32.6,30.00,North,351,0.0,0.0,93,0.01,,,0.07,VWS V14.01,2013-11-26 18:09:00,
2013-11-26 13:10:00,34.4,32.6,29.98,North,9,0.0,0.0,93,0.02,,,0.09,VWS V14.01,2013-11-26 18:10:00,
2013-11-26 13:14:00,34.4,32.6,30.00,West,279,0.0,0.0,93,0.01,,,0.07,VWS V14.01,2013-11-26 18:14:00,
2013-11-26 13:19:00,34.4,32.6,30.00,North,360,0.0,0.0,93,0.01,,,0.07,VWS V14.01,2013-11-26 18:19:00,
2013-11-26 13:20:00,34.4,32.6,29.97,NNW,340,0.0,0.0,93,0.03,,,0.10,VWS V14.01,2013-11-26 18:20:00,
2013-11-26 13:24:00,34.4,32.6,30.01,North,360,0.0,0.0,93,0.01,,,0.07,VWS V14.01,2013-11-26 18:24:00,
2013-11-26 13:29:00,34.4,32.6,30.01,North,355,0.0,0.0,93,0.00,,,0.07,VWS V14.01,2013-11-26 18:29:00,
2013-11-26 13:30:00,34.4,32.6,29.97,NNW,338,0.0,0.0,93,0.03,,,0.10,VWS V14.01,2013-11-26 18:30:00,
2013-11-26 13:34:00,34.4,32.6,30.01,North,360,0.0,0.0,93,0.01,,,0.08,VWS V14.01,2013-11-26 18:34:00,
2013-11-26 13:39:00,34.4,32.6,29.99,NE,35,0.0,0.0,93,0.01,,,0.08,VWS V14.01,2013-11-26 18:39:00,
2013-11-26 13:40:00,34.3,32.5,29.97,NNE,22,0.0,0.0,93,0.02,,,0.10,VWS V14.01,2013-11-26 18:40:00,
2013-11-26 13:44:00,34.4,32.6,29.99,North,5,0.0,0.0,93,0.01,,,0.08,VWS V14.01,2013-11-26 18:44:00,
2013-11-26 13:49:00,34.4,32.6,29.99,North,360,0.0,0.0,93,0.01,,,0.08,VWS V14.01,2013-11-26 18:49:00,
2013-11-26 13:50:00,34.4,32.6,29.96,NE,43,0.0,0.0,93,0.02,,,0.10,VWS V14.01,2013-11-26 18:50:00,
2013-11-26 13:54:00,34.4,32.6,29.98,NNW,342,0.0,0.0,93,0.02,,,0.09,VWS V14.01,2013-11-26 18:54:00,
2013-11-26 13:59:00,34.4,32.6,29.98,NNW,342,0.0,0.0,93,0.02,,,0.09,VWS V14.01,2013-11-26 18:59:00,
2013-11-26 14:00:00,34.4,32.6,29.95,NNE,12,0.0,0.0,93,0.01,,,0.10,VWS V14.01,2013-11-26 19:00:00,
2013-11-26 14:04:00,34.4,32.6,29.98,North,360,0.0,0.0,93,0.02,,,0.09,VWS V14.01,2013-11-26 19:04:00,
2013-11-26 14:09:00,34.3,32.5,29.98,NNW,347,0.0,0.0,93,0.02,,,0.09,VWS V14.01,2013-11-26 19:09:00,
2013-11-26 14:10:00,34.4,32.6,29.95,North,355,0.0,0.0,93,0.01,,,0.10,VWS V14.01,2013-11-26 19:10:00,
2013-11-26 14:14:00,34.3,32.5,29.98,NNW,346,0.0,0.0,93,0.02,,,0.09,VWS V14.01,2013-11-26 19:14:00,
2013-11-26 14:19:00,34.4,32.6,29.98,NNE,30,0.0,0.0,93,0.03,,,0.10,VWS V14.01,2013-11-26 19:19:00,
2013-11-26 14:20:00,34.6,32.8,29.94,NNW,331,0.0,0.0,93,0.02,,,0.11,VWS V14.01,2013-11-26 19:20:00,
2013-11-26 14:24:00,34.4,32.6,29.97,NNW,340,0.0,0.0,93,0.03,,,0.10,VWS V14.01,2013-11-26 19:24:00,
2013-11-26 14:29:00,34.4,32.6,29.97,NNW,335,0.0,0.0,93,0.03,,,0.10,VWS V14.01,2013-11-26 19:29:00,
2013-11-26 14:30:00,34.4,32.3,29.96,North,355,0.0,0.0,92,0.01,,,0.11,VWS V14.01,2013-11-26 19:30:00,
2013-11-26 14:34:00,34.4,32.6,29.97,NW,306,0.0,0.0,93,0.03,,,0.10,VWS V14.01,2013-11-26 19:34:00,
2013-11-26 14:39:00,34.4,32.6,29.97,North,355,0.0,0.0,93,0.02,,,0.10,VWS V14.01,2013-11-26 19:39:00,
2013-11-26 14:40:00,34.4,32.3,29.96,NNW,342,0.0,0.0,92,0.01,,,0.11,VWS V14.01,2013-11-26 19:40:00,
2013-11-26 14:44:00,34.3,32.5,29.97,North,349,0.0,0.0,93,0.02,,,0.10,VWS V14.01,2013-11-26 19:44:00,
2013-11-26 14:49:00,34.4,32.6,29.97,NE,34,0.0,0.0,93,0.02,,,0.10,VWS V14.01,2013-11-26 19:49:00,
2013-11-26 14:50:00,34.4,32.3,29.95,NNW,342,0.0,0.0,92,0.02,,,0.12,VWS V14.01,2013-11-26 19:50:00,
2013-11-26 14:54:00,34.4,32.6,29.96,NE,43,0.0,0.0,93,0.02,,,0.10,VWS V14.01,2013-11-26 19:54:00,
2013-11-26 14:59:00,34.6,32.8,29.96,NE,39,0.0,0.0,93,0.01,,,0.10,VWS V14.01,2013-11-26 19:59:00,
2013-11-26 15:00:00,34.4,32.3,29.96,NW,306,0.0,0.0,92,0.02,,,0.12,VWS V14.01,2013-11-26 20:00:00,
2013-11-26 15:04:00,34.4,32.6,29.96,North,355,0.0,0.0,93,0.01,,,0.10,VWS V14.01,2013-11-26 20:04:00,
2013-11-26 15:09:00,34.4,32.6,29.95,NNE,20,0.0,0.0,93,0.01,,,0.10,VWS V14.01,2013-11-26 20:09:00,
2013-11-26 15:10:00,34.3,32.2,29.96,NNW,344,0.0,0.0,92,0.02,,,0.12,VWS V14.01,2013-11-26 20:10:00,
2013-11-26 15:14:00,34.4,32.6,29.95,North,350,0.0,0.0,93,0.01,,,0.10,VWS V14.01,2013-11-26 20:14:00,
2013-11-26 15:19:00,34.4,32.6,29.95,NNE,15,0.0,0.0,93,0.02,,,0.11,VWS V14.01,2013-11-26 20:19:00,
2013-11-26 15:20:00,34.1,32.0,29.95,NNW,333,0.0,0.0,92,0.03,,,0.13,VWS V14.01,2013-11-26 20:20:00,
2013-11-26 15:24:00,34.6,32.8,29.94,NNW,342,0.0,0.0,93,0.02,,,0.11,VWS V14.01,2013-11-26 20:24:00,
2013-11-26 15:29:00,34.6,32.8,29.94,NNW,336,0.0,0.0,93,0.01,,,0.11,VWS V14.01,2013-11-26 20:29:00,
2013-11-26 15:30:00,34.0,31.9,29.94,NW,325,0.0,0.0,92,0.03,,,0.14,VWS V14.01,2013-11-26 20:30:00,
2013-11-26 15:34:00,34.4,32.6,29.94,NNW,340,0.0,0.0,93,0.01,,,0.11,VWS V14.01,2013-11-26 20:34:00,
2013-11-26 15:39:00,34.4,32.6,29.96,NNW,344,0.0,0.0,93,0.01,,,0.11,VWS V14.01,2013-11-26 20:39:00,
2013-11-26 15:40:00,34.0,31.9,29.94,NNW,348,0.0,0.0,92,0.03,,,0.14,VWS V14.01,2013-11-26 20:40:00,
2013-11-26 15:44:00,34.4,32.3,29.96,NNW,339,0.0,0.0,92,0.01,,,0.11,VWS V14.01,2013-11-26 20:44:00,
2013-11-26 15:49:00,34.4,32.3,29.96,NNW,341,0.0,0.0,92,0.01,,,0.11,VWS V14.01,2013-11-26 20:49:00,
2013-11-26 15:50:00,33.8,31.7,29.94,NW,306,0.0,0.0,92,0.03,,,0.14,VWS V14.01,2013-11-26 20:50:00,
2013-11-26 15:54:00,34.4,32.3,29.95,NNE,21,0.0,0.0,92,0.02,,,0.12,VWS V14.01,2013-11-26 20:54:00,
2013-11-26 15:59:00,34.4,32.3,29.95,NNW,329,0.0,0.0,92,0.02,,,0.12,VWS V14.01,2013-11-26 20:59:00,
2013-11-26 16:00:00,34.0,31.9,29.96,NW,326,0.0,0.0,92,0.02,,,0.14,VWS V14.01,2013-11-26 21:00:00,
2013-11-26 16:04:00,34.4,32.3,29.95,NNW,342,0.0,0.0,92,0.02,,,0.12,VWS V14.01,2013-11-26 21:04:00,
2013-11-26 16:09:00,34.3,32.2,29.96,NNE,13,0.0,0.0,92,0.02,,,0.12,VWS V14.01,2013-11-26 21:09:00,
2013-11-26 16:10:00,33.8,31.7,29.96,WNW,298,0.0,0.0,92,0.02,,,0.14,VWS V14.01,2013-11-26 21:10:00,
2013-11-26 16:14:00,34.3,32.2,29.96,NNW,348,0.0,0.0,92,0.02,,,0.12,VWS V14.01,2013-11-26 21:14:00,
2013-11-26 16:19:00,34.3,32.2,29.96,NNW,347,0.0,0.0,92,0.02,,,0.12,VWS V14.01,2013-11-26 21:19:00,
2013-11-26 16:20:00,33.7,31.6,29.95,North,355,0.0,0.0,92,0.02,,,0.14,VWS V14.01,2013-11-26 21:20:00,
2013-11-26 16:25:00,34.1,32.0,29.95,NNW,347,0.0,0.0,92,0.03,,,0.13,VWS V14.01,2013-11-26 21:25:00,
2013-11-26 16:30:00,34.0,31.9,29.95,NNW,348,0.0,0.0,92,0.02,,,0.13,VWS V14.01,2013-11-26 21:30:00,
2013-11-26 16:35:00,34.0,31.9,29.95,North,9,0.0,0.0,92,0.03,,,0.14,VWS V14.01,2013-11-26 21:35:00,
2013-11-26 16:40:00,34.0,31.9,29.94,NNW,339,0.0,0.0,92,0.03,,,0.14,VWS V14.01,2013-11-26 21:40:00,
2013-11-26 16:45:00,34.0,31.9,29.94,NW,308,0.0,0.0,92,0.03,,,0.14,VWS V14.01,2013-11-26 21:45:00,
2013-11-26 16:50:00,33.8,31.7,29.94,NNW,342,0.0,0.0,92,0.03,,,0.14,VWS V14.01,2013-11-26 21:50:00,
2013-11-26 16:55:00,33.8,31.7,29.94,NNW,342,0.0,0.0,92,0.03,,,0.14,VWS V14.01,2013-11-26 21:55:00,
2013-11-26 17:00:00,33.8,31.7,29.94,NNW,346,0.0,0.0,92,0.02,,,0.14,VWS V14.01,2013-11-26 22:00:00,
2013-11-26 17:05:00,34.0,31.9,29.96,NNW,342,0.0,0.0,92,0.02,,,0.14,VWS V14.01,2013-11-26 22:05:00,
2013-11-26 17:10:00,34.0,31.9,29.96,NNW,346,0.0,0.0,92,0.02,,,0.14,VWS V14.01,2013-11-26 22:10:00,
2013-11-26 17:15:00,33.8,31.7,29.96,North,355,0.0,0.0,92,0.02,,,0.14,VWS V14.01,2013-11-26 22:15:00,
2013-11-26 17:20:00,33.8,31.7,29.95,North,355,0.0,0.0,92,0.02,,,0.14,VWS V14.01,2013-11-26 22:20:00,
2013-11-26 17:25:00,33.7,31.6,29.95,WNW,289,0.0,0.0,92,0.02,,,0.14,VWS V14.01,2013-11-26 22:25:00,
2013-11-26 17:30:00,33.5,31.2,29.95,NNW,344,0.0,0.0,91,0.01,,,0.14,VWS V14.01,2013-11-26 22:30:00,
2013-11-26 17:35:00,33.5,31.2,29.96,NW,325,0.0,0.0,91,0.02,,,0.15,VWS V14.01,2013-11-26 22:35:00,
2013-11-26 17:40:00,33.4,31.1,29.96,NNW,338,0.0,0.0,91,0.01,,,0.15,VWS V14.01,2013-11-26 22:40:00,
2013-11-26 17:45:00,33.4,31.1,29.96,North,350,0.0,0.0,91,0.01,,,0.15,VWS V14.01,2013-11-26 22:45:00,
2013-11-26 17:50:00,33.2,31.1,29.95,North,351,0.0,0.0,92,0.01,,,0.15,VWS V14.01,2013-11-26 22:50:00,
2013-11-26 17:55:00,33.2,31.1,29.95,NNW,342,0.0,0.0,92,0.01,,,0.15,VWS V14.01,2013-11-26 22:55:00,
2013-11-26 18:00:00,33.2,31.1,29.95,NNW,344,0.0,0.0,92,0.01,,,0.15,VWS V14.01,2013-11-26 23:00:00,
2013-11-26 18:05:00,33.1,31.0,29.95,NW,317,0.0,0.0,92,0.01,,,0.15,VWS V14.01,2013-11-26 23:05:00,
2013-11-26 18:10:00,32.9,30.8,29.95,NNW,335,0.0,0.0,92,0.01,,,0.15,VWS V14.01,2013-11-26 23:10:00,
2013-11-26 18:15:00,32.8,30.7,29.95,NW,310,0.0,0.0,92,0.01,,,0.15,VWS V14.01,2013-11-26 23:15:00,
2013-11-26 18:20:00,32.7,30.6,29.95,North,10,0.0,0.0,92,0.01,,,0.15,VWS V14.01,2013-11-26 23:20:00,
2013-11-26 18:25:00,32.5,30.4,29.95,WNW,282,0.0,0.0,92,0.01,,,0.15,VWS V14.01,2013-11-26 23:25:00,
2013-11-26 18:30:00,32.4,30.3,29.95,WNW,299,0.0,0.0,92,0.01,,,0.15,VWS V14.01,2013-11-26 23:30:00,
2013-11-26 18:35:00,32.2,30.1,29.96,NW,319,0.0,0.0,92,0.01,,,0.15,VWS V14.01,2013-11-26 23:35:00,
2013-11-26 18:40:00,32.2,30.1,29.96,WNW,288,0.0,0.0,92,0.00,,,0.15,VWS V14.01,2013-11-26 23:40:00,
2013-11-26 18:45:00,32.2,30.4,29.96,NW,306,0.0,0.0,93,0.00,,,0.15,VWS V14.01,2013-11-26 23:45:00,
2013-11-26 18:50:00,32.1,30.3,29.96,NNW,342,0.0,0.0,93,0.00,,,0.15,VWS V14.01,2013-11-26 23:50:00,
2013-11-26 18:55:00,32.1,30.3,29.96,NNW,339,0.0,0.0,93,0.00,,,0.15,VWS V14.01,2013-11-26 23:55:00,
2013-11-26 19:00:00,32.1,30.3,29.96,WNW,296,0.0,0.0,93,0.00,,,0.15,VWS V14.01,2013-11-27 00:00:00,
2013-11-26 19:05:00,32.1,30.3,29.96,NW,304,0.0,0.0,93,0.00,,,0.15,VWS V14.01,2013-11-27 00:05:00,
2013-11-26 19:10:00,32.1,30.3,29.96,NW,312,0.0,0.0,93,0.00,,,0.15,VWS V14.01,2013-11-27 00:10:00,
2013-11-26 19:15:00,31.9,30.1,29.96,NW,306,0.0,0.0,93,0.00,,,0.15,VWS V14.01,2013-11-27 00:15:00,
2013-11-26 19:20:00,31.9,30.1,29.96,NNW,344,0.0,0.0,93,0.00,,,0.15,VWS V14.01,2013-11-27 00:20:00,
2013-11-26 19:25:00,31.9,30.1,29.96,WNW,294,0.0,0.0,93,0.00,,,0.15,VWS V14.01,2013-11-27 00:25:00,
2013-11-26 19:30:00,31.8,30.0,29.96,NW,308,0.0,0.0,93,0.00,,,0.15,VWS V14.01,2013-11-27 00:30:00,
2013-11-26 19:35:00,31.8,30.0,29.98,WNW,297,0.0,0.0,93,0.00,,,0.15,VWS V14.01,2013-11-27 00:35:00,
2013-11-26 19:40:00,31.8,30.0,29.98,WNW,286,0.0,0.0,93,0.00,,,0.15,VWS V14.01,2013-11-27 00:40:00,
2013-11-26 19:45:00,31.8,30.0,29.98,WNW,302,0.0,0.0,93,0.00,,,0.15,VWS V14.01,2013-11-27 00:45:00,
2013-11-26 19:50:00,31.6,29.8,29.98,WNW,289,0.0,0.0,93,0.00,,,0.15,VWS V14.01,2013-11-27 00:50:00,
2013-11-26 19:55:00,31.6,29.8,29.98,WNW,286,0.0,0.0,93,0.00,,,0.15,VWS V14.01,2013-11-27 00:55:00,
2013-11-26 20:00:00,31.5,29.7,29.98,WNW,286,0.0,0.0,93,0.00,,,0.15,VWS V14.01,2013-11-27 01:00:00,
2013-11-26 20:05:00,31.5,29.7,29.98,WNW,291,0.0,0.0,93,0.00,,,0.15,VWS V14.01,2013-11-27 01:05:00,
2013-11-26 20:10:00,31.5,29.7,29.98,NNW,340,0.0,0.0,93,0.00,,,0.15,VWS V14.01,2013-11-27 01:10:00,
2013-11-26 20:15:00,31.5,29.7,29.98,West,281,0.0,0.0,93,0.00,,,0.15,VWS V14.01,2013-11-27 01:15:00,
2013-11-26 20:20:00,31.3,29.5,29.99,WNW,298,0.0,0.0,93,0.00,,,0.15,VWS V14.01,2013-11-27 01:20:00,
2013-11-26 20:25:00,31.3,29.5,29.99,WNW,282,0.0,0.0,93,0.00,,,0.15,VWS V14.01,2013-11-27 01:25:00,
2013-11-26 20:30:00,31.2,29.4,29.99,NW,314,0.0,0.0,93,0.00,,,0.15,VWS V14.01,2013-11-27 01:30:00,
2013-11-26 20:35:00,31.2,29.4,29.98,NNW,333,0.0,0.0,93,0.00,,,0.15,VWS V14.01,2013-11-27 01:35:00,
2013-11-26 20:40:00,31.2,29.4,29.98,NW,308,0.0,0.0,93,0.00,,,0.15,VWS V14.01,2013-11-27 01:40:00,
2013-11-26 20:45:00,31.2,29.4,29.98,NW,315,0.0,0.0,93,0.00,,,0.15,VWS V14.01,2013-11-27 01:45:00,
2013-11-26 20:50:00,31.0,29.2,29.98,NW,308,0.0,0.0,93,0.00,,,0.15,VWS V14.01,2013-11-27 01:50:00,
2013-11-26 20:55:00,31.0,29.2,29.98,NNW,337,0.0,0.0,93,0.00,,,0.15,VWS V14.01,2013-11-27 01:55:00,
2013-11-26 21:00:00,31.0,29.2,29.98,WNW,302,0.0,0.0,93,0.00,,,0.15,VWS V14.01,2013-11-27 02:00:00,
2013-11-26 21:05:00,31.0,29.2,29.98,West,272,0.0,0.0,93,0.00,,,0.15,VWS V14.01,2013-11-27 02:05:00,
2013-11-26 21:10:00,30.9,29.1,29.98,WSW,252,0.0,0.0,93,0.00,,,0.15,VWS V14.01,2013-11-27 02:10:00,
2013-11-26 21:15:00,30.9,29.1,29.98,West,277,0.0,0.0,93,0.00,,,0.15,VWS V14.01,2013-11-27 02:15:00,
2013-11-26 21:20:00,30.7,28.9,29.98,West,281,0.0,0.0,93,0.00,,,0.15,VWS V14.01,2013-11-27 02:20:00,
2013-11-26 21:30:00,30.7,28.9,29.98,West,274,0.0,0.0,93,0.00,,,0.15,VWS V14.01,2013-11-27 02:30:00,
2013-11-26 21:35:00,30.7,28.9,29.98,WNW,288,0.0,0.0,93,0.00,,,0.15,VWS V14.01,2013-11-27 02:35:00,
2013-11-26 21:40:00,30.7,28.9,29.98,WNW,296,0.0,0.0,93,0.00,,,0.15,VWS V14.01,2013-11-27 02:40:00,
2013-11-26 21:45:00,30.7,28.9,29.98,WNW,299,0.0,0.0,93,0.00,,,0.15,VWS V14.01,2013-11-27 02:45:00,
2013-11-26 21:50:00,30.7,28.9,29.98,West,271,0.0,0.0,93,0.00,,,0.15,VWS V14.01,2013-11-27 02:50:00,
2013-11-26 21:55:00,30.7,28.9,29.98,WNW,298,0.0,0.0,93,0.00,,,0.15,VWS V14.01,2013-11-27 02:55:00,
2013-11-26 22:00:00,30.7,28.9,29.98,WNW,298,0.0,0.0,93,0.00,,,0.15,VWS V14.01,2013-11-27 03:00:00,
2013-11-26 22:05:00,30.7,28.9,29.99,WNW,299,0.0,0.0,93,0.00,,,0.15,VWS V14.01,2013-11-27 03:05:00,
2013-11-26 22:10:00,30.7,28.9,29.99,North,355,0.0,0.0,93,0.00,,,0.15,VWS V14.01,2013-11-27 03:10:00,
2013-11-26 22:15:00,30.7,28.9,29.99,North,355,0.0,0.0,93,0.00,,,0.15,VWS V14.01,2013-11-27 03:15:00,
2013-11-26 22:20:00,30.6,28.8,29.99,WNW,293,0.0,0.0,93,0.00,,,0.15,VWS V14.01,2013-11-27 03:20:00,
2013-11-26 22:25:00,30.6,28.8,29.99,WNW,294,0.0,0.0,93,0.00,,,0.15,VWS V14.01,2013-11-27 03:25:00,
2013-11-26 22:30:00,30.6,28.8,29.99,North,360,0.0,0.0,93,0.00,,,0.15,VWS V14.01,2013-11-27 03:30:00,
2013-11-26 22:35:00,30.6,28.8,29.99,NNW,329,0.0,0.0,93,0.00,,,0.15,VWS V14.01,2013-11-27 03:35:00,
2013-11-26 22:40:00,30.6,28.8,29.99,NNW,333,0.0,0.0,93,0.00,,,0.15,VWS V14.01,2013-11-27 03:40:00,
2013-11-26 22:45:00,30.6,28.8,29.99,WNW,290,0.0,0.0,93,0.00,,,0.15,VWS V14.01,2013-11-27 03:45:00,
2013-11-26 22:50:00,30.6,28.8,29.98,West,277,0.0,0.0,93,0.00,,,0.15,VWS V14.01,2013-11-27 03:50:00,
2013-11-26 22:55:00,30.6,28.8,29.98,WNW,292,0.0,0.0,93,0.00,,,0.15,VWS V14.01,2013-11-27 03:55:00,
2013-11-26 23:00:00,30.6,28.0,29.97,WNW,302,0.0,0.0,90,0.00,,,0.15,VWS V14.01,2013-11-27 04:00:00,
2013-11-26 23:01:00,30.4,28.6,29.98,WNW,292,0.0,0.0,93,0.00,,,0.15,VWS V14.01,2013-11-27 04:01:00,
2013-11-26 23:06:00,30.6,28.6,29.98,NW,325,0.0,0.0,92,0.00,,,0.15,VWS V14.01,2013-11-27 04:06:00,
2013-11-26 23:10:00,30.6,27.8,29.97,West,277,0.0,0.0,89,0.00,,,0.00,VWS V14.01,2013-11-27 04:10:00,
2013-11-26 23:11:00,30.6,28.6,29.98,WNW,292,0.0,0.0,92,0.00,,,0.15,VWS V14.01,2013-11-27 04:11:00,
2013-11-26 23:16:00,30.6,28.6,29.98,West,279,0.0,0.0,92,0.00,,,0.15,VWS V14.01,2013-11-27 04:16:00,
2013-11-26 23:20:00,30.6,27.8,29.96,NNW,337,0.0,0.0,89,0.00,,,0.00,VWS V14.01,2013-11-27 04:20:00,
2013-11-26 23:21:00,30.4,28.4,29.98,WNW,286,0.0,0.0,92,0.00,,,0.15,VWS V14.01,2013-11-27 04:21:00,
2013-11-26 23:26:00,30.4,28.4,29.98,WNW,289,0.0,0.0,92,0.00,,,0.15,VWS V14.01,2013-11-27 04:26:00,
2013-11-26 23:30:00,30.6,27.8,29.96,WNW,289,0.0,0.0,89,0.00,,,0.00,VWS V14.01,2013-11-27 04:30:00,
2013-11-26 23:31:00,30.4,28.4,29.98,NW,315,0.0,0.0,92,0.00,,,0.15,VWS V14.01,2013-11-27 04:31:00,
2013-11-26 23:36:00,30.4,28.1,29.97,NNW,335,0.0,0.0,91,0.00,,,0.15,VWS V14.01,2013-11-27 04:36:00,
2013-11-26 23:40:00,30.6,27.8,29.96,NW,308,0.0,0.0,89,0.00,,,0.00,VWS V14.01,2013-11-27 04:40:00,
2013-11-26 23:41:00,30.6,28.3,29.97,WNW,301,0.0,0.0,91,0.00,,,0.15,VWS V14.01,2013-11-27 04:41:00,
2013-11-26 23:46:00,30.6,28.3,29.97,WNW,284,0.0,0.0,91,0.00,,,0.15,VWS V14.01,2013-11-27 04:46:00,
2013-11-26 23:50:00,30.6,27.8,29.97,West,275,0.0,0.0,89,0.00,,,0.00,VWS V14.01,2013-11-27 04:50:00,
2013-11-26 23:51:00,30.6,28.3,29.97,WNW,290,0.0,0.0,91,0.00,,,0.15,VWS V14.01,2013-11-27 04:51:00,
2013-11-26 23:56:00,30.6,28.0,29.97,NNW,331,0.0,0.0,90,0.00,,,0.15,VWS V14.01,2013-11-27 04:56:00,